Tiempo cada hora Allieres

Hoy, 30 Julio, Viernes

Tiempo Temperatura Precipitaciones Viento Presión Humedad
00:00 +20°C° 0.1 mm 1 mps 717 mmHg 87%
01:00 +20°C° 0.3 mm 1 mps 716 mmHg 89%
02:00 +19°C° 0.3 mm 1 mps 716 mmHg 90%
03:00 +19°C° 0.3 mm 1 mps 716 mmHg 92%
04:00 +19°C° 0.1 mm 1 mps 716 mmHg 92%
05:00 +19°C° 0.1 mm 1 mps 717 mmHg 93%
06:00 +19°C° 0.1 mm 1 mps 717 mmHg 94%
07:00 +20°C° 0.1 mm 1 mps 717 mmHg 91%
08:00 +19°C° 0.1 mm 2 mps 717 mmHg 89%
09:00 +20°C° 0.1 mm 2 mps 717 mmHg 87%
10:00 +20°C° 0 mm 2 mps 717 mmHg 85%
11:00 +20°C° 0 mm 2 mps 717 mmHg 83%
12:00 +21°C° 0 mm 2 mps 718 mmHg 80%
13:00 +21°C° 0 mm 2 mps 717 mmHg 78%
14:00 +21°C° 0 mm 2 mps 717 mmHg 75%
15:00 +23°C° 0 mm 2 mps 717 mmHg 72%
16:00 +21°C° 0.2 mm 2 mps 718 mmHg 78%
17:00 +20°C° 0.2 mm 2 mps 718 mmHg 83%
18:00 +20°C° 0.2 mm 2 mps 718 mmHg 89%
19:00 +19°C° 0 mm 2 mps 718 mmHg 90%
20:00 +18°C° 0 mm 2 mps 718 mmHg 91%
21:00 +18°C° 0 mm 1 mps 718 mmHg 93%
22:00 +18°C° 0 mm 1 mps 718 mmHg 92%
23:00 +18°C° 0 mm 1 mps 718 mmHg 92%

Mañana, 31 Julio, Sábado

Tiempo Temperatura Precipitaciones Viento Presión Humedad
00:00 +18°C° 0 mm 1 mps 718 mmHg 92%
01:00 +18°C° 0 mm 1 mps 717 mmHg 93%
02:00 +18°C° 0 mm 1 mps 717 mmHg 93%
03:00 +18°C° 0 mm 1 mps 717 mmHg 94%
04:00 +16°C° 0.1 mm 1 mps 716 mmHg 94%
05:00 +16°C° 0.1 mm 1 mps 716 mmHg 94%
06:00 +16°C° 0.1 mm 1 mps 716 mmHg 94%
07:00 +16°C° 0.1 mm 1 mps 716 mmHg 93%
08:00 +16°C° 0.1 mm 1 mps 716 mmHg 92%
09:00 +16°C° 0.1 mm 1 mps 717 mmHg 91%
10:00 +16°C° 0.1 mm 2 mps 716 mmHg 90%
11:00 +16°C° 0.1 mm 2 mps 716 mmHg 89%
12:00 +16°C° 0.1 mm 2 mps 716 mmHg 89%
13:00 +16°C° 0.1 mm 2 mps 716 mmHg 89%
14:00 +15°C° 0.1 mm 2 mps 716 mmHg 90%
15:00 +15°C° 0.1 mm 2 mps 716 mmHg 90%
16:00 +15°C° 0.2 mm 2 mps 716 mmHg 92%
17:00 +14°C° 0.2 mm 2 mps 716 mmHg 93%
18:00 +14°C° 0.2 mm 2 mps 717 mmHg 95%
19:00 +14°C° 1 mm 2 mps 717 mmHg 94%
20:00 +13°C° 1 mm 2 mps 717 mmHg 94%
21:00 +13°C° 1 mm 2 mps 717 mmHg 94%
22:00 +13°C° 0 mm 2 mps 717 mmHg 93%
23:00 +13°C° 0 mm 1 mps 717 mmHg 91%

Pasado mañana, 1 Agosto, Domingo

Tiempo Temperatura Precipitaciones Viento Presión Humedad
00:00 +13°C° 0 mm 1 mps 717 mmHg 90%
01:00 +13°C° 0 mm 1 mps 717 mmHg 90%
02:00 +13°C° 0 mm 1 mps 717 mmHg 90%
03:00 +12°C° 0 mm 1 mps 716 mmHg 90%
04:00 +13°C° 0 mm 1 mps 717 mmHg 90%
05:00 +13°C° 0 mm 1 mps 717 mmHg 89%
06:00 +13°C° 0 mm 1 mps 717 mmHg 89%
07:00 +14°C° 0 mm 2 mps 717 mmHg 86%
08:00 +15°C° 0 mm 2 mps 718 mmHg 84%
09:00 +16°C° 0 mm 2 mps 718 mmHg 82%
10:00 +18°C° 0.1 mm 2 mps 718 mmHg 73%
11:00 +19°C° 0.1 mm 2 mps 718 mmHg 65%
12:00 +21°C° 0.1 mm 3 mps 718 mmHg 56%
13:00 +21°C° 0.1 mm 3 mps 718 mmHg 55%
14:00 +22°C° 0.1 mm 3 mps 718 mmHg 54%
15:00 +22°C° 0.1 mm 3 mps 718 mmHg 54%
16:00 +20°C° 0.1 mm 3 mps 718 mmHg 62%
17:00 +19°C° 0.1 mm 2 mps 718 mmHg 70%
18:00 +18°C° 0.1 mm 2 mps 718 mmHg 78%
19:00 +17°C° 0 mm 2 mps 718 mmHg 81%
20:00 +17°C° 0 mm 2 mps 719 mmHg 84%
21:00 +16°C° 0 mm 2 mps 719 mmHg 88%
22:00 +15°C° 0 mm 2 mps 719 mmHg 89%
23:00 +15°C° 0 mm 2 mps 719 mmHg 90%

2 Agosto, Lunes

Tiempo Temperatura Precipitaciones Viento Presión Humedad
00:00 +14°C° 0 mm 2 mps 719 mmHg 91%
01:00 +14°C° 0 mm 1 mps 719 mmHg 92%
02:00 +13°C° 0 mm 1 mps 719 mmHg 93%
03:00 +13°C° 0 mm 1 mps 719 mmHg 94%
04:00 +13°C° 0 mm 1 mps 719 mmHg 92%
05:00 +13°C° 0 mm 1 mps 719 mmHg 90%
06:00 +14°C° 0 mm 1 mps 719 mmHg 88%
07:00 +16°C° 0 mm 1 mps 719 mmHg 78%
08:00 +19°C° 0 mm 1 mps 719 mmHg 67%
09:00 +22°C° 0 mm 1 mps 720 mmHg 57%
10:00 +23°C° 0 mm 1 mps 719 mmHg 53%
11:00 +25°C° 0 mm 2 mps 719 mmHg 48%
12:00 +26°C° 0 mm 2 mps 719 mmHg 43%
13:00 +26°C° 0 mm 2 mps 719 mmHg 42%
14:00 +27°C° 0 mm 2 mps 718 mmHg 42%
15:00 +27°C° 0 mm 2 mps 718 mmHg 41%
16:00 +26°C° 0.1 mm 2 mps 718 mmHg 47%
17:00 +25°C° 0.1 mm 2 mps 718 mmHg 54%
18:00 +23°C° 0.1 mm 2 mps 718 mmHg 60%
19:00 +21°C° 0 mm 1 mps 718 mmHg 67%
20:00 +19°C° 0 mm 1 mps 718 mmHg 73%
21:00 +16°C° 0 mm 1 mps 718 mmHg 80%
22:00 +16°C° 0.1 mm 1 mps 718 mmHg 82%
23:00 +16°C° 0.1 mm 1 mps 718 mmHg 85%

3 Agosto, Martes

Tiempo Temperatura Precipitaciones Viento Presión Humedad
00:00 +15°C° 0.1 mm 2 mps 718 mmHg 87%
01:00 +15°C° 0.3 mm 2 mps 718 mmHg 90%
02:00 +15°C° 0.3 mm 2 mps 718 mmHg 93%
03:00 +15°C° 0.3 mm 2 mps 718 mmHg 95%
04:00 +15°C° 0.2 mm 2 mps 718 mmHg 95%
05:00 +15°C° 0.2 mm 1 mps 719 mmHg 96%
06:00 +15°C° 0.2 mm 1 mps 719 mmHg 96%
07:00 +16°C° 0 mm 1 mps 719 mmHg 91%
08:00 +17°C° 0 mm 2 mps 719 mmHg 86%
09:00 +18°C° 0 mm 2 mps 720 mmHg 82%
10:00 +19°C° 0.1 mm 2 mps 720 mmHg 77%
11:00 +20°C° 0.1 mm 2 mps 720 mmHg 72%
12:00 +21°C° 0.1 mm 2 mps 719 mmHg 67%
13:00 +23°C° 0 mm 2 mps 719 mmHg 65%
14:00 +23°C° 0 mm 2 mps 719 mmHg 63%
15:00 +24°C° 0 mm 2 mps 719 mmHg 61%
16:00 +23°C° 0 mm 2 mps 719 mmHg 64%
17:00 +21°C° 0 mm 2 mps 719 mmHg 67%
18:00 +21°C° 0 mm 2 mps 719 mmHg 70%
19:00 +21°C° 0 mm 1 mps 720 mmHg 72%
20:00 +20°C° 0 mm 1 mps 720 mmHg 74%
21:00 +17°C° 0 mm 0 mps 720 mmHg 77%
22:00 +19°C° 0 mm 1 mps 720 mmHg 78%
23:00 +19°C° 0 mm 1 mps 720 mmHg 78%

4 Agosto, Miércoles

Tiempo Temperatura Precipitaciones Viento Presión Humedad
00:00 +18°C° 0 mm 1 mps 720 mmHg 79%
01:00 +18°C° 0 mm 1 mps 719 mmHg 82%
02:00 +16°C° 0 mm 1 mps 719 mmHg 85%
03:00 +16°C° 0 mm 1 mps 719 mmHg 87%
04:00 +16°C° 0 mm 1 mps 719 mmHg 87%
05:00 +16°C° 0 mm 1 mps 719 mmHg 87%
06:00 +16°C° 0 mm 1 mps 720 mmHg 87%
07:00 +19°C° 0 mm 1 mps 720 mmHg 79%
08:00 +19°C° 0 mm 2 mps 720 mmHg 71%
09:00 +21°C° 0 mm 2 mps 720 mmHg 63%
10:00 +23°C° 0 mm 2 mps 720 mmHg 59%
11:00 +24°C° 0 mm 2 mps 720 mmHg 56%
12:00 +26°C° 0 mm 2 mps 720 mmHg 52%
13:00 +26°C° 0.1 mm 2 mps 719 mmHg 50%
14:00 +27°C° 0.1 mm 2 mps 719 mmHg 48%
15:00 +28°C° 0.1 mm 2 mps 718 mmHg 46%
16:00 +27°C° 0 mm 1 mps 718 mmHg 51%
17:00 +26°C° 0 mm 1 mps 718 mmHg 55%
18:00 +25°C° 0 mm 1 mps 718 mmHg 59%
19:00 +23°C° 0 mm 2 mps 717 mmHg 64%
20:00 +21°C° 0 mm 2 mps 717 mmHg 68%
21:00 +19°C° 0 mm 2 mps 717 mmHg 72%
22:00 +19°C° 0 mm 2 mps 716 mmHg 71%
23:00 +19°C° 0 mm 2 mps 715 mmHg 70%
Mostrar más

Necesitamos Su Consentimiento

Meteoprog y nuestros Proveedores de Servicios pueden almacenar y acceder a sus datos personales como cookies, identificadores de dispositivo u otras tecnologías similares de su dispositivo y procesar dichos datos para personalizar contenido y anuncios, además de ofrecer funciones de redes sociales y analizar el tráfico.

  • Almacenar y/o acceder a información en su dispositivo

    Se puede almacenar o acceder a cookies, identificadores de dispositivo u otra información de su dispositivo para los fines anteriormente indicados.

  • Anuncios y contenido personalizados, medición de anuncios y contenido, percepciones del público, y desarrollo de productos

    Los anuncios y el contenido pueden personalizarse en base a su perfil. Se pueden añadir más datos para personalizar mejor los anuncios y contenidos. Se puede medir el rendimiento de los anuncios y contenidos. Se puede obtener la percepción sobre el público que ha visto los anuncios y contenidos. Dichos datos pueden usarse para desarrollar o mejorar la experiencia del usuario, sistemas y software.

Al hacer clic en ‘Estoy De Acuerdo’ usted permitirá el uso de las cookies, identificadores de dispositivo, balizas web u otras tecnologías similares indicadas. Su configuración puede cambiarse desde el navegador de su dispositivo.

Para ciertos fines, los intereses legítimos pueden ser considerados por encima del consentimiento. Puede leer más sobre ello en nuestra Política de Privacidad y Cookies.